This is the latest recevied weather packets stored in our database for station/object VA2RBQ-7. If no packets are shown the sender has not sent any weather packets the latest 10 day(s).
| Time | Temp. | Humidity | Pressure | Rain* | Wind** | Luminosity | Snow |
|---|---|---|---|---|---|---|---|
| 1788462570 | 8.89° C | 70% | 1017.3 hPa | 3.56 mm | - | - | - |
| 1788462267 | 8.89° C | 71% | 1017.3 hPa | 3.56 mm | - | - | - |
| 1788461965 | 8.89° C | 71% | 1017.2 hPa | 3.05 mm | - | - | - |
| 1788461662 | 8.89° C | 71% | 1017.4 hPa | 2.29 mm | - | - | - |
| 1788461359 | 8.89° C | 71% | 1017.5 hPa | 2.03 mm | - | - | - |
| 1788461057 | 8.89° C | 71% | 1017.5 hPa | 1.78 mm | - | - | - |
| 1788460754 | 8.89° C | 71% | 1017.6 hPa | 1.52 mm | - | - | - |
| 1788460452 | 8.89° C | 71% | 1017.5 hPa | 1.27 mm | - | - | - |
| 1788460149 | 8.89° C | 71% | 1017.8 hPa | 1.27 mm | - | - | - |
| 1788459846 | 8.89° C | 71% | 1017.7 hPa | 1.27 mm | - | - | - |
| 1788459544 | 9.44° C | 71% | 1017.8 hPa | 1.27 mm | - | - | - |
| 1788459241 | 9.44° C | 71% | 1017.8 hPa | 1.27 mm | - | - | - |
| 1788458939 | 9.44° C | 71% | 1017.8 hPa | 1.27 mm | - | - | - |
| 1788458636 | 9.44° C | 71% | 1017.9 hPa | 1.27 mm | - | - | - |
| 1788458334 | 9.44° C | 71% | 1018 hPa | 1.27 mm | - | - | - |
| 1788458031 | 9.44° C | 71% | 1018 hPa | 1.27 mm | - | - | - |
| 1788457728 | 9.44° C | 71% | 1018.2 hPa | 1.27 mm | - | - | - |
| 1788457426 | 9.44° C | 71% | 1018 hPa | 1.27 mm | - | - | - |
| 1788457123 | 9.44° C | 71% | 1018.3 hPa | 1.27 mm | - | - | - |
| 1788456821 | 9.44° C | 71% | 1018.3 hPa | 1.27 mm | - | - | - |
| 1788456518 | 9.44° C | 72% | 1018.2 hPa | 1.27 mm | - | - | - |
| 1788456216 | 10° C | 71% | 1018.2 hPa | 1.02 mm | - | - | - |
| 1788455913 | 9.44° C | 71% | 1018.1 hPa | 1.02 mm | - | - | - |
| 1788455610 | 9.44° C | 71% | 1018.2 hPa | 1.02 mm | - | - | - |
| 1788455307 | 8.89° C | 71% | 1018.2 hPa | 1.02 mm | - | - | - |
* Rain since midnight (hover to see other rain measurements)
** Current wind speed in m/s (hover to see current wind gust speed)